Wind_Speed
16 16 16 16 16 16 15 15 14 14 14 14 15 15 15 16 17 17 17 17 16 15 15 15 14 14 13 13 13 12 12 12 12 12 11 11 10 10 11 11 11 11 11 11 12 12 12 13 13 13 14 14 14 14 14 14 14 14 14 14 14 15 16 17 18 18 18 18 18 19 21 23 24 22 21 22 23 23 22 22 24 25 25 26 26
17 17 17 17 17 17 16 15 15 15 14 14 15 15 16 17 17 18 18 17 16 15 14 14 14 14 13 13 13 12 12 12 12 11 11 10 9 9 9 10 10 9 9 9 10 11 11 12 12 12 13 13 13 13 13 14 14 15 15 15 15 15 16 18 19 19 19 19 19 18 18 20 22 22 23 23 24 24 23 22 22 24 25 26 27
19 19 19 19 18 17 17 15 15 15 15 15 15 15 16 17 17 18 18 17 17 16 15 14 14 14 13 13 13 12 12 12 12 11 10 10 9 8 8 8 8 7 8 9 10 10 10 11 11 11 11 11 11 11 12 12 13 14 14 15 15 16 17 18 19 20 20 20 20 19 18 17 18 20 22 23 24 24 24 23 22 22 25 27 28
20 20 20 20 19 18 17 16 15 15 15 15 15 16 16 17 18 18 18 17 17 17 16 15 14 14 14 13 13 13 12 12 12 11 10 9 8 7 6 5 6 6 7 9 10 9 9 9 10 10 9 9 9 9 9 10 11 12 13 13 14 15 16 17 19 20 21 20 20 20 20 18 16 17 21 23 24 24 24 23 23 23 24 25 27
22 21 22 21 20 19 17 17 16 16 16 16 16 16 16 17 17 17 17 17 17 17 16 16 15 15 15 14 14 14 13 13 12 11 10 9 7 5 4 4 4 4 5 6 7 6 5 6 7 7 7 7 8 8 9 9 9 10 10 12 13 14 15 17 18 19 20 20 20 20 21 20 18 18 20 23 24 24 24 23 24 24 24 24 25
23 23 23 22 21 20 18 18 17 17 16 16 16 15 16 16 17 17 17 17 17 17 17 16 16 16 16 15 15 14 14 13 12 11 10 8 5 3 3 3 4 3 3 4 4 3 3 4 5 6 6 7 7 8 9 9 9 9 9 10 11 12 13 15 16 17 18 19 19 20 20 21 21 20 20 22 24 25 25 25 25 25 25 26 26
24 24 24 23 22 21 20 19 18 18 17 16 15 15 15 16 16 17 17 17 17 18 17 17 17 17 16 16 15 14 13 13 12 11 8 5 1 1 3 3 3 3 4 4 3 2 3 3 4 5 6 7 8 8 8 8 8 9 9 9 10 10 11 12 14 15 17 18 19 19 20 20 20 22 22 22 24 26 27 27 26 27 27 27 27
25 25 25 24 23 21 21 20 19 18 17 16 15 15 15 16 16 17 17 17 17 17 18 18 18 17 17 16 15 14 13 12 11 9 6 3 1 1 0 1 3 4 4 4 4 4 5 5 5 6 7 8 8 9 9 9 9 8 8 8 10 10 10 11 13 14 16 18 19 19 18 17 16 18 19 21 22 25 28 29 29 29 29 28 28
27 27 26 25 23 22 22 21 20 19 18 17 16 16 16 16 17 17 17 17 17 18 18 18 18 17 17 15 14 13 12 11 9 7 5 4 2 4 6 5 5 5 6 8 9 8 8 8 9 9 9 9 10 10 11 11 10 10 10 9 11 13 13 13 13 14 15 16 18 18 17 16 15 15 16 18 20 22 25 28 30 31 31 30 28
28 28 27 26 24 23 22 21 21 20 18 17 16 16 16 16 16 17 17 18 18 18 19 18 18 18 16 15 13 12 11 10 7 5 5 5 5 8 8 7 7 9 11 12 12 12 12 12 12 12 12 12 12 12 12 13 13 13 13 12 13 15 16 16 16 16 16 16 16 17 18 18 18 18 18 19 19 20 22 25 28 31 33 32 30
29 29 28 27 26 24 23 22 22 20 19 17 16 15 14 14 15 16 17 18 18 19 19 19 18 18 17 15 13 12 11 9 6 4 5 7 9 9 7 8 10 12 13 13 14 15 16 16 16 16 15 15 14 14 14 14 15 15 16 16 15 17 18 19 19 18 18 16 16 16 17 20 22 22 23 22 22 21 21 22 24 28 32 34 34
30 30 29 27 26 25 24 24 22 21 19 17 16 14 13 14 15 15 16 17 18 19 19 19 19 19 18 14 13 13 10 8 3 2 7 11 9 5 7 11 12 13 13 14 15 16 17 18 18 19 18 17 16 16 16 17 17 18 18 18 17 18 19 20 21 20 19 17 16 17 17 19 21 23 25 25 25 24 23 23 23 25 29 33 35
31 31 30 28 27 26 26 25 23 22 20 18 16 14 13 14 14 15 16 16 17 17 18 19 19 20 19 16 14 11 9 6 4 3 14 12 4 5 10 13 12 13 14 15 16 17 18 19 20 21 21 21 20 19 19 20 20 20 20 20 20 20 20 21 22 22 21 19 18 19 18 18 19 21 23 25 26 27 27 27 26 25 26 29 33
32 31 30 30 29 28 27 26 24 23 21 19 16 14 13 13 14 15 15 16 16 16 16 18 18 19 20 21 17 12 9 5 5 11 17 5 3 11 14 14 14 14 15 15 17 18 19 20 21 23 23 24 24 24 24 24 23 23 22 23 23 22 22 22 23 23 22 21 22 22 21 20 20 21 21 23 24 26 28 29 30 29 28 28 30
33 32 32 31 30 29 28 27 25 24 21 19 16 14 13 13 13 14 15 15 15 15 15 16 16 18 20 21 21 17 10 2 8 17 12 3 10 17 16 16 16 16 16 17 18 19 20 22 23 24 25 26 26 27 27 27 26 26 25 24 24 24 24 24 24 25 24 24 24 25 24 23 22 22 22 22 23 24 26 28 30 32 32 31 29
34 33 33 32 31 30 29 28 26 24 22 19 16 14 13 12 12 13 14 15 15 15 15 15 15 17 18 18 19 16 8 8 21 21 8 8 17 19 19 20 18 18 19 19 20 21 22 24 26 27 27 28 29 29 29 29 29 28 27 26 25 24 24 25 25 26 26 25 25 25 25 24 23 23 24 24 24 25 25 26 28 31 33 33 32
35 35 34 33 32 31 30 29 27 25 22 19 17 15 13 11 11 12 14 15 15 15 15 14 14 15 16 15 12 11 13 21 28 21 14 16 18 19 21 21 20 20 21 22 22 23 25 26 27 29 30 30 31 31 30 30 30 29 28 27 26 24 23 24 24 25 25 26 26 26 26 25 25 26 27 27 27 27 27 27 27 29 31 33 34
37 36 35 34 34 33 32 30 28 26 23 20 18 15 13 11 11 11 13 15 15 15 15 14 14 14 15 14 12 13 19 25 24 24 27 23 16 18 21 21 22 22 22 24 25 26 27 28 29 30 32 32 32 32 32 31 31 30 30 29 28 27 26 25 25 25 25 26 26 27 26 26 27 28 28 28 29 29 29 29 28 28 30 32 34
38 37 37 35 35 34 33 31 29 26 24 21 19 15 12 11 10 11 13 16 16 16 15 14 14 14 14 15 14 15 18 20 20 25 32 31 25 21 20 22 25 24 24 26 28 30 30 29 31 32 33 33 34 33 33 32 32 31 31 31 30 30 29 29 28 28 28 28 27 26 27 28 29 30 29 29 29 30 32 32 32 30 31 33 35
39 38 38 37 36 36 34 32 30 28 25 22 19 16 13 11 10 11 12 15 16 16 16 14 14 14 13 13 13 13 14 15 16 18 22 32 35 29 25 27 26 24 26 28 30 32 33 32 34 35 35 35 35 34 33 33 33 32 32 32 32 32 32 33 33 33 33 32 32 31 31 32 32 32 32 31 30 30 31 33 35 35 34 34 36
40 39 39 38 38 37 36 34 32 29 26 23 20 17 14 12 11 11 12 15 17 17 17 15 14 14 14 13 12 12 11 10 11 13 15 23 30 32 33 34 30 25 26 31 33 34 35 35 36 37 38 37 35 34 34 34 34 33 33 33 34 34 35 36 36 36 37 37 37 37 37 37 37 36 34 33 32 31 32 33 35 36 37 37 37
40 41 40 39 39 38 37 35 32 29 27 24 21 18 14 12 11 11 12 15 17 18 18 16 15 15 14 13 12 11 10 8 8 10 12 17 22 27 30 33 36 32 28 33 37 36 35 36 37 38 38 38 36 34 35 35 34 35 36 37 38 38 38 38 38 38 39 39 39 40 40 41 41 40 37 34 32 31 31 32 34 37 38 39 38
42 42 41 41 40 39 38 35 33 30 27 25 21 18 15 13 12 11 13 16 18 18 19 17 15 15 14 14 14 13 12 10 9 10 13 16 21 27 28 29 34 35 33 34 36 36 36 36 37 37 38 38 36 35 36 36 36 38 40 42 42 42 42 42 41 41 42 42 43 43 43 43 44 43 41 38 36 33 32 33 33 34 36 38 38
43 43 43 42 41 41 39 37 35 32 28 25 22 19 16 13 12 12 13 16 18 19 20 18 16 15 15 14 14 14 13 12 12 12 14 17 21 27 30 30 34 37 36 35 36 35 33 34 36 37 37 37 36 36 37 38 39 42 45 47 46 46 46 46 46 46 46 47 47 47 47 47 48 47 45 43 42 41 40 39 36 34 33 34 36
44 45 44 43 42 42 41 39 37 33 29 26 23 20 17 14 12 12 14 16 18 20 20 19 17 16 15 15 15 14 13 13 14 14 15 17 20 26 29 30 34 39 38 37 37 35 32 31 33 35 36 36 37 38 39 40 42 44 47 49 48 49 49 48 48 48 48 49 49 49 50 50 49 48 47 45 44 45 44 41 40 38 35 33 34
43 43 44 43 43 43 42 40 38 34 30 27 24 21 17 15 14 13 14 16 18 20 21 20 18 17 16 16 16 15 14 14 14 15 15 17 20 24 29 33 36 39 38 38 37 36 35 34 35 36 35 36 38 41 41 42 44 46 47 49 50 50 50 49 48 48 48 48 49 50 50 50 48 46 44 41 40 43 45 43 42 41 39 38 37
42 41 42 42 43 43 42 41 39 35 32 28 26 22 19 17 15 14 15 16 18 21 22 21 19 18 18 17 17 16 15 15 15 15 15 17 19 21 25 32 38 41 41 39 37 36 37 38 38 39 38 38 41 43 44 45 46 47 48 49 51 50 50 50 49 49 48 48 49 50 50 51 50 47 44 40 37 39 42 43 44 44 43 41 40
42 41 42 42 43 43 43 42 40 37 33 30 27 24 21 18 16 15 15 16 19 21 22 21 20 20 19 19 18 17 16 16 15 15 15 16 18 19 21 24 30 38 42 42 40 39 39 40 40 41 40 41 44 45 46 48 49 49 50 50 51 52 52 51 50 50 50 49 49 50 50 51 52 51 50 49 46 43 42 44 45 47 49 48 47
43 42 42 42 43 44 44 43 41 39 36 33 29 26 23 20 17 16 16 17 19 22 23 22 21 21 20 20 19 18 18 17 16 16 16 17 18 19 21 21 23 29 35 41 45 42 40 43 43 42 42 43 45 47 48 49 50 49 51 51 51 52 52 52 52 52 51 51 51 51 51 51 50 50 50 49 47 44 44 45 44 45 49 53 54
44 43 43 43 44 45 45 45 43 40 37 34 31 28 24 22 19 18 17 18 20 22 23 22 22 21 21 20 20 19 19 18 17 17 17 18 19 19 20 21 22 24 27 35 46 46 42 45 45 44 46 47 47 49 49 50 50 50 51 51 51 52 53 53 53 53 52 52 51 51 51 51 49 49 47 45 43 41 41 42 42 43 45 49 54
44 43 43 44 45 46 47 46 44 41 39 36 32 29 26 23 21 19 18 18 20 23 24 23 22 21 21 20 20 20 19 18 17 17 17 18 19 20 21 22 23 25 26 30 41 48 46 47 49 48 48 50 49 50 50 50 50 50 51 51 51 51 52 53 52 52 50 49 50 50 50 48 46 44 44 44 43 43 43 44 44 44 43 44 49
44 43 43 43 44 46 47 47 45 42 40 37 34 31 28 25 22 20 19 20 21 23 24 23 22 21 21 20 20 20 19 18 17 17 18 18 19 20 22 24 24 25 28 29 38 49 49 47 50 51 49 51 51 50 50 50 50 50 50 50 50 51 52 52 51 50 49 48 47 47 47 45 42 42 43 44 45 46 46 46 45 45 45 45 45
45 45 44 43 43 44 45 46 45 43 42 39 36 33 30 27 24 22 21 21 22 23 23 23 21 20 20 20 20 20 19 18 17 17 18 18 20 21 22 25 26 26 28 31 37 47 50 48 49 51 51 51 52 51 50 51 50 48 48 48 48 50 51 52 52 51 48 47 46 45 44 43 41 41 42 43 44 45 45 44 44 43 43 44 44
46 46 45 43 43 43 45 46 46 45 43 40 37 34 31 28 25 23 22 22 23 24 23 22 21 20 20 19 19 19 18 17 17 18 19 19 21 23 23 25 27 27 28 31 35 42 50 51 49 51 52 51 52 52 49 49 48 47 47 48 49 51 52 52 52 52 48 45 45 44 42 40 39 40 42 43 44 44 43 43 42 42 42 42 42
48 48 46 45 44 44 44 46 46 46 44 41 38 35 32 29 26 24 23 23 23 24 23 21 21 20 20 19 19 18 17 17 18 18 20 21 22 24 25 26 28 29 29 31 34 39 47 51 50 50 52 52 52 51 48 46 45 46 49 50 50 51 52 52 51 51 49 45 43 42 39 40 41 40 41 42 42 42 42 41 41 42 42 42 41
50 49 48 46 45 44 45 46 47 47 45 42 39 36 32 29 27 25 24 24 24 24 22 21 20 20 20 19 18 17 17 17 18 20 21 23 24 25 27 27 28 30 30 31 33 36 42 49 50 49 51 52 51 48 45 45 45 46 50 52 52 53 53 52 50 50 48 45 43 42 40 40 42 41 41 41 40 40 40 40 40 41 41 41 41
51 50 49 47 46 45 45 47 48 48 46 44 40 37 34 30 28 27 26 25 25 23 22 21 20 20 19 18 18 17 17 18 19 20 22 23 25 26 27 28 28 29 31 31 33 35 39 46 50 49 48 48 48 45 43 44 47 49 51 52 52 52 53 53 49 47 48 48 46 45 44 43 44 43 43 42 40 39 38 38 39 40 40 40 40
52 51 49 48 47 46 45 47 48 48 47 45 42 38 35 32 30 28 27 26 25 23 22 21 20 19 18 18 17 17 17 18 19 21 22 24 25 26 27 28 29 30 31 32 34 36 39 43 46 48 47 45 46 46 42 43 46 49 53 57 53 47 47 52 52 47 47 48 46 45 45 46 46 44 45 45 42 40 39 39 39 40 40 40 40
52 51 50 49 47 45 45 46 47 48 48 46 43 39 36 33 31 29 28 27 25 23 21 20 19 19 18 17 17 17 17 18 20 21 23 24 25 27 27 28 29 30 32 33 34 36 37 40 42 44 45 44 45 47 45 44 46 47 48 54 60 53 44 48 53 50 48 48 48 46 45 45 44 44 45 44 41 38 38 38 37 38 38 39 41
52 51 50 48 46 45 45 45 47 48 48 47 43 40 38 35 32 31 29 27 25 23 21 20 19 18 18 16 16 16 17 18 20 21 22 24 25 26 26 27 29 30 32 33 33 33 35 37 40 42 45 46 47 49 50 48 49 51 46 45 57 61 52 49 51 48 45 49 51 50 45 41 41 43 42 38 35 34 35 35 36 37 40 42 43
51 51 49 47 46 45 45 46 48 49 49 46 43 41 39 36 34 31 29 27 24 22 21 20 18 18 16 15 15 16 17 18 19 20 22 24 25 26 27 27 28 29 30 30 31 32 33 36 39 41 44 48 50 50 53 53 51 55 54 46 49 55 52 52 55 48 43 47 50 47 42 38 39 40 38 34 34 35 35 38 41 43 44 46 45
50 49 48 47 46 45 45 47 49 50 49 46 44 42 40 36 34 31 29 27 24 23 21 19 18 17 15 15 16 16 17 18 19 21 22 24 25 26 27 27 27 27 28 28 29 30 33 36 40 42 44 49 51 50 54 56 53 51 50 45 45 48 47 50 57 56 47 41 41 42 42 40 40 42 44 44 45 45 45 48 50 49 49 49 45
49 49 48 47 46 46 47 48 49 50 49 47 45 42 40 37 35 32 29 27 25 23 21 19 17 16 16 16 16 16 17 18 20 21 22 22 23 23 24 23 24 24 25 27 29 31 34 38 40 41 42 47 50 49 49 52 51 48 45 42 43 47 47 47 52 57 51 40 39 46 52 50 46 46 51 54 54 53 52 52 50 50 50 49 45
48 48 48 48 47 47 47 48 49 50 49 47 45 43 41 38 35 32 29 27 24 22 21 19 17 16 16 16 16 16 17 19 20 21 21 22 22 23 23 22 21 21 22 25 28 31 34 38 40 41 42 45 47 47 45 46 47 48 47 47 45 45 47 48 50 55 55 48 46 52 59 58 51 48 54 57 54 53 53 51 48 46 46 46 45
47 48 48 47 47 47 47 47 49 50 49 47 45 43 40 37 34 31 28 26 24 22 21 19 17 17 16 16 16 17 18 19 20 20 21 22 23 24 24 23 23 22 22 23 26 29 32 36 40 43 42 42 45 48 47 46 47 49 52 54 53 50 52 54 56 60 61 55 51 54 60 63 57 52 57 59 53 51 51 48 44 42 43 45 47
47 47 47 47 46 46 47 47 48 49 48 46 43 41 38 35 32 30 27 25 23 22 20 19 18 17 16 16 17 18 19 19 19 20 21 23 24 25 25 25 25 24 24 25 26 27 29 32 38 42 41 41 45 49 49 47 47 50 53 57 58 57 58 60 61 64 64 59 52 51 57 64 60 54 57 56 52 51 50 46 44 43 42 44 46
46 46 46 46 45 45 46 46 47 48 46 44 42 40 37 34 32 30 27 25 23 21 20 19 18 17 16 16 18 19 19 19 19 20 22 23 24 25 25 25 26 26 27 28 28 29 30 31 35 40 42 42 44 46 48 48 48 49 51 55 57 58 60 62 63 64 65 59 48 43 51 61 60 54 55 53 50 52 53 47 44 43 43 44 46
44 44 44 44 44 44 45 46 47 47 45 43 41 39 36 34 33 31 28 25 22 21 21 20 18 17 17 18 19 20 19 19 19 20 21 22 22 22 23 24 26 27 28 28 28 28 29 31 35 38 41 42 42 42 43 44 45 46 48 52 55 54 54 57 58 61 63 57 44 37 44 54 54 51 51 50 48 52 56 52 48 47 46 45 45
44 44 44 44 43 43 44 45 47 47 45 43 41 38 35 34 34 32 27 24 23 21 21 20 19 18 18 19 20 20 19 19 19 20 20 19 19 21 24 25 25 27 28 29 29 29 30 33 35 37 38 39 38 39 40 41 43 45 46 52 54 53 53 54 55 58 61 58 46 35 37 48 52 52 52 53 53 55 58 58 54 50 47 46 44
42 42 42 42 42 42 43 44 46 46 44 43 40 37 35 35 34 31 26 24 23 22 21 20 19 19 19 20 19 19 19 19 19 19 18 17 19 21 22 24 26 29 31 32 32 32 32 33 35 36 37 38 39 42 43 44 44 42 44 49 51 50 52 54 55 57 62 64 55 42 43 54 59 57 56 56 57 57 55 54 51 47 45 43 38
39 40 41 41 42 42 43 44 45 45 44 42 40 37 35 35 34 29 26 24 23 22 22 20 19 19 20 20 19 18 18 18 18 18 17 17 19 19 20 24 29 32 32 30 30 31 31 33 35 38 40 41 43 44 44 42 40 37 37 40 41 43 46 49 51 52 57 62 52 37 38 47 50 51 49 45 48 52 49 46 43 40 40 39 37
Wind_Direction
241 242 243 244 247 251 256 261 265 269 271 274 277 280 285 289 293 297 300 303 307 311 314 314 313 311 307 301 297 294 292 292 291 291 290 288 285 282 280 277 275 274 274 275 274 274 275 276 277 279 282 284 285 286 286 286 285 282 279 275 270 266 264 265 267 267 267 264 261 257 252 249 247 245 248 254 255 257 260 259 257 256 259 262 263
241 241 241 242 244 249 254 258 262 265 267 270 272 276 282 286 291 296 300 303 306 310 314 315 313 312 308 303 299 296 294 294 293 292 291 290 288 286 283 283 281 280 278 274 269 266 265 266 267 269 272 275 277 278 279 280 281 282 282 282 279 275 271 269 268 267 267 266 264 262 258 254 250 243 242 248 252 255 259 262 261 257 257 259 261
240 240 240 241 243 247 251 255 258 261 262 265 269 274 279 284 289 294 298 302 305 308 312 314 314 312 309 306 303 300 298 296 295 294 294 293 292 290 288 289 289 286 282 273 265 260 261 263 265 267 270 274 275 274 275 275 277 280 282 283 283 281 278 276 274 271 269 266 267 267 265 260 253 245 240 242 247 251 255 258 262 264 261 259 260
239 240 239 239 242 245 249 252 254 257 258 262 267 272 278 285 289 293 298 301 304 308 312 314 314 312 309 308 305 304 304 302 300 297 297 297 295 294 289 284 283 279 274 269 263 261 262 265 266 269 274 280 284 285 284 283 283 284 284 283 281 281 280 279 279 278 276 272 269 269 269 266 256 244 238 237 240 243 247 251 257 263 262 260 260
239 239 239 238 241 243 247 249 251 253 255 260 265 272 280 287 292 295 297 300 304 307 310 313 313 312 310 310 308 308 308 307 304 302 300 299 296 290 273 254 248 249 262 268 269 272 277 277 274 276 283 290 295 298 298 296 295 293 292 288 284 281 279 278 279 281 281 278 274 270 268 266 260 248 238 236 237 238 240 244 252 258 260 260 259
238 238 238 238 240 242 245 246 248 249 252 258 264 273 281 288 292 294 295 297 299 302 307 310 311 311 311 311 311 310 310 308 305 306 305 301 297 273 220 198 195 204 257 273 280 297 303 294 285 280 281 286 290 292 294 296 297 299 302 300 293 285 280 277 277 279 280 279 276 273 269 267 265 258 246 237 235 236 235 236 245 253 257 261 261
237 237 237 237 239 241 243 244 245 246 250 256 263 272 281 287 289 291 293 295 297 300 303 306 309 310 312 313 312 311 309 306 306 310 309 303 297 159 157 166 192 246 264 260 271 302 305 297 290 283 278 277 279 279 281 286 289 294 304 312 308 298 290 283 278 275 273 272 271 270 271 272 272 269 262 249 239 235 234 233 236 243 250 256 261
236 235 235 236 237 238 240 241 242 244 248 253 261 271 280 286 289 291 294 296 299 301 302 305 308 309 313 313 310 310 306 303 306 309 303 280 176 101 20 282 283 285 278 287 316 324 319 311 306 299 293 286 282 280 280 284 290 293 304 319 326 320 310 299 288 279 273 270 268 267 269 272 280 285 281 271 257 244 237 235 235 237 241 247 253
234 234 234 234 235 236 237 238 238 240 244 251 259 270 281 288 292 294 296 299 300 301 301 302 305 307 311 311 308 308 304 302 304 302 281 257 288 335 329 323 322 323 331 339 342 338 332 324 321 316 309 301 293 290 288 290 293 296 300 312 324 325 318 311 304 298 290 281 275 270 267 267 273 282 282 278 271 259 247 242 240 240 240 241 245
233 233 233 233 233 233 234 234 235 238 242 249 258 269 280 288 294 297 298 299 298 299 300 301 303 305 307 308 308 307 303 300 295 285 264 263 311 332 333 341 345 343 344 346 347 342 337 333 331 327 322 314 306 300 296 296 295 296 297 302 313 317 316 315 313 311 306 297 287 275 266 263 263 265 265 266 268 266 260 252 248 247 246 245 245
233 233 232 232 232 232 232 232 234 237 242 249 258 267 278 288 296 299 298 298 297 298 300 302 305 306 308 311 311 307 301 298 286 262 268 295 322 330 338 348 345 344 347 347 345 340 338 336 334 331 326 321 315 309 304 301 299 296 295 297 304 309 311 312 312 313 311 305 298 287 274 266 264 264 264 263 262 264 265 260 254 250 250 249 249
232 232 232 232 232 232 232 232 234 238 242 248 255 264 277 291 298 299 298 298 298 300 302 304 306 307 307 310 314 310 302 297 264 251 321 325 328 326 337 343 342 343 345 343 339 337 337 335 332 329 327 324 320 315 311 308 304 300 297 297 300 304 307 307 308 310 310 306 300 294 288 280 274 271 271 271 267 263 263 263 259 253 249 249 250
232 232 232 232 232 232 231 233 235 237 241 246 253 263 277 292 299 299 298 298 300 302 304 306 309 310 306 304 314 318 312 293 211 331 337 333 325 322 333 338 340 342 341 340 337 337 337 334 330 329 327 327 324 321 319 316 312 307 302 300 299 300 302 303 305 305 306 304 298 292 290 289 285 281 279 277 273 268 265 263 262 259 254 250 250
232 232 232 232 233 233 233 233 235 236 240 244 251 262 276 291 299 300 298 298 301 302 305 311 317 323 320 315 317 326 327 282 221 329 338 335 328 331 332 335 335 336 338 339 337 337 336 333 331 331 330 331 330 328 326 323 320 315 309 304 301 300 299 300 300 300 301 300 297 294 290 288 286 284 281 279 276 272 269 266 264 262 259 254 251
232 232 233 233 234 233 233 233 234 236 238 242 249 260 274 291 300 302 300 299 302 304 309 315 323 332 333 328 325 332 344 270 279 320 331 316 334 336 333 332 332 334 335 335 333 332 332 331 331 332 332 332 331 330 329 327 324 321 317 312 307 303 301 299 299 298 298 298 297 296 294 291 288 285 281 278 275 274 271 270 267 264 260 257 255
231 232 233 233 233 232 231 232 233 234 236 240 248 258 274 291 301 302 300 301 304 308 312 318 327 335 337 335 332 334 343 322 315 318 317 315 330 335 334 331 331 333 334 332 330 329 329 330 332 332 332 332 331 330 329 328 327 325 322 319 314 310 306 303 301 299 298 298 297 297 297 296 293 289 284 280 277 274 272 270 269 266 262 258 255
231 232 232 232 231 231 230 231 231 233 235 239 246 257 272 289 299 301 301 302 305 309 313 320 329 336 339 338 335 326 321 328 327 321 310 314 325 334 335 332 331 331 332 330 329 328 328 330 330 330 331 330 329 328 328 328 327 326 324 322 318 314 311 307 304 302 299 298 296 296 296 296 295 292 290 287 283 279 274 270 266 264 263 259 254
230 231 231 231 230 230 230 230 230 232 233 237 244 255 270 285 295 300 301 301 303 306 308 318 327 334 337 334 331 323 322 330 332 321 315 312 318 334 336 332 330 331 332 330 328 327 329 329 328 328 330 329 328 327 327 327 326 326 324 323 320 317 314 311 309 307 304 301 299 296 295 294 293 292 293 293 290 286 282 276 269 262 259 259 255
230 231 230 230 229 229 228 229 229 230 232 237 243 252 264 276 288 296 299 298 300 302 303 311 323 329 332 329 327 326 326 330 328 324 322 315 314 326 334 332 331 332 331 329 327 327 329 328 326 328 329 327 328 328 326 326 325 325 325 324 322 319 316 314 312 311 310 307 303 298 295 293 293 294 293 293 292 290 287 283 277 269 260 257 256
230 231 230 229 228 228 227 227 227 229 231 236 241 249 259 269 280 288 293 295 295 298 300 303 315 323 326 324 323 324 325 328 324 322 319 314 315 321 325 326 327 330 331 327 325 328 329 328 327 327 326 326 328 328 327 326 326 326 326 325 324 322 320 319 317 316 314 311 307 302 298 297 296 295 292 291 290 289 289 287 282 277 269 260 255
230 230 230 229 228 227 227 226 227 229 231 235 239 246 255 264 273 282 289 291 291 294 295 298 308 317 319 318 319 320 322 324 319 311 305 304 311 319 323 323 320 323 332 329 327 330 330 330 329 327 325 326 327 328 328 328 328 328 328 328 327 326 324 322 320 318 315 313 310 306 303 302 300 298 295 292 288 285 285 286 284 280 275 270 263
230 229 229 228 227 227 227 227 228 229 231 233 237 243 250 259 268 279 286 288 290 292 292 294 303 311 313 314 315 316 318 319 310 300 296 294 299 309 319 322 318 320 330 329 327 330 331 330 329 326 326 327 326 326 328 329 329 330 330 330 328 326 323 321 319 316 313 312 309 306 304 303 300 299 298 296 293 288 284 284 284 281 278 276 271
231 230 230 228 227 227 227 227 228 229 231 232 236 241 246 254 265 275 283 288 289 290 290 291 298 305 308 310 311 312 314 317 313 301 299 300 298 302 311 317 315 317 325 326 324 326 329 329 327 326 326 326 325 325 327 328 328 329 330 328 326 324 322 319 317 315 313 311 309 308 306 303 300 298 297 296 294 291 287 286 285 283 283 281 277
231 230 230 229 228 228 227 227 228 229 231 233 235 238 243 250 261 272 281 287 289 290 289 289 292 299 301 303 305 307 309 311 313 310 307 306 302 303 311 315 311 315 324 325 322 324 327 327 326 326 327 327 325 323 323 325 326 328 328 326 324 322 321 318 316 315 314 312 311 309 307 303 300 298 297 294 290 287 285 285 282 279 280 281 280
232 231 230 229 229 229 229 228 230 231 231 232 234 237 241 248 258 269 278 285 288 289 288 286 289 294 296 298 298 300 304 305 307 309 309 309 305 304 310 312 310 315 323 325 324 326 327 325 324 324 326 326 324 320 320 321 323 325 325 323 322 321 318 317 315 314 314 312 311 309 307 304 302 299 297 293 289 285 283 281 278 274 273 273 276
236 234 232 231 231 231 230 230 230 231 231 231 233 236 239 246 255 265 274 281 286 286 285 283 287 291 292 293 295 296 297 299 302 306 308 309 308 309 311 313 314 317 322 323 324 325 325 325 323 321 323 323 320 319 318 317 319 322 322 320 319 318 317 315 314 313 312 311 310 309 307 305 303 302 299 295 289 283 280 277 273 273 272 272 273
241 239 236 233 232 232 231 230 230 230 230 230 233 235 237 243 252 260 269 277 282 283 282 282 285 289 291 290 291 292 292 294 297 301 304 304 306 309 311 314 316 318 321 321 321 322 323 324 322 321 323 321 319 318 317 316 317 319 318 318 317 316 316 315 313 313 312 311 309 308 306 304 302 300 297 294 290 284 281 277 270 267 268 269 269
244 241 238 235 234 233 231 230 229 229 229 230 232 234 236 240 247 256 264 272 278 280 279 280 282 285 287 287 287 287 287 290 293 297 300 301 304 308 308 310 312 314 318 319 318 320 322 322 321 320 321 320 319 318 316 316 316 315 314 315 315 315 314 313 312 312 311 310 308 306 304 302 300 297 294 291 288 285 283 280 274 267 263 263 262
245 242 240 237 235 233 231 230 229 228 228 229 231 232 234 238 243 251 259 267 274 277 276 275 278 281 283 283 283 283 283 287 291 296 300 301 303 306 306 306 304 306 312 314 314 317 319 319 319 318 317 318 316 315 314 314 313 311 310 310 311 311 312 312 312 312 311 309 307 305 303 301 300 297 294 291 289 286 285 283 279 273 266 261 259
246 244 241 239 236 234 231 229 228 228 228 228 229 230 232 236 240 246 254 263 269 272 272 272 274 277 280 280 280 280 281 285 290 295 299 302 304 305 306 306 304 303 306 307 309 311 315 315 313 312 313 314 313 312 312 312 310 307 306 306 307 309 309 310 311 311 310 308 307 305 303 302 300 296 293 290 288 286 286 284 282 279 274 268 261
246 245 242 240 238 236 232 229 227 227 227 227 228 229 231 234 238 243 251 259 265 269 269 270 272 275 278 278 277 278 280 284 290 295 299 302 304 305 306 305 306 305 305 304 303 305 310 311 309 309 310 311 311 310 310 309 306 305 304 303 305 308 309 309 309 309 308 308 307 306 304 302 299 295 291 288 286 286 285 284 282 280 278 276 269
246 246 244 242 240 238 235 230 228 227 227 226 227 229 231 233 236 241 248 254 261 265 266 267 271 275 277 275 274 276 279 283 288 294 299 302 304 305 305 305 305 305 305 303 299 301 306 308 307 308 308 309 309 308 307 306 304 303 303 303 305 307 309 309 309 310 309 309 308 307 306 303 297 292 290 287 286 287 286 285 284 281 277 277 276
246 246 245 242 240 239 237 233 229 228 228 227 227 229 230 233 235 239 245 251 258 262 264 267 270 274 274 272 272 274 276 282 289 295 298 301 303 303 303 302 302 303 302 301 300 301 304 306 306 306 307 307 307 307 306 305 304 304 303 304 306 307 309 310 311 312 312 310 309 308 308 304 297 292 290 290 289 289 288 286 285 282 280 278 277
246 246 245 243 240 238 237 234 230 229 229 229 229 230 231 233 235 238 243 249 255 260 262 265 269 271 271 268 269 273 277 284 290 294 298 300 300 300 300 299 299 300 300 299 299 299 302 304 306 306 306 306 305 306 307 307 308 309 308 309 309 309 311 313 313 314 314 313 311 310 309 305 299 293 292 292 291 289 288 286 284 282 280 279 277
246 246 245 243 240 238 237 234 231 230 230 230 231 231 232 234 235 238 243 248 253 257 260 264 268 269 269 267 268 272 277 284 290 294 297 298 297 297 298 297 298 299 299 298 297 297 299 301 303 305 305 304 304 305 308 311 313 314 312 313 313 312 313 315 314 314 314 313 312 310 306 303 300 295 293 293 291 290 288 285 284 282 280 279 277
246 245 245 242 240 238 236 234 232 230 230 231 231 232 232 234 235 238 242 247 251 255 258 262 266 267 266 266 267 270 276 283 289 293 293 294 295 295 296 296 297 298 298 297 296 295 295 297 300 302 302 302 303 307 312 314 315 316 315 315 316 314 314 315 315 314 314 313 312 308 303 303 302 296 293 293 292 290 287 284 283 283 281 280 277
245 245 244 241 239 237 235 234 232 231 231 231 232 233 233 234 235 237 241 246 251 254 257 260 263 264 264 264 265 270 277 284 287 289 291 292 293 293 293 295 295 295 296 294 293 291 289 291 296 298 299 301 306 310 315 317 316 316 317 317 317 315 314 316 314 310 312 312 309 307 303 301 300 296 294 294 292 290 287 282 280 280 280 279 278
245 244 243 241 239 238 236 234 233 231 231 231 232 233 234 234 235 237 241 245 249 251 254 257 259 260 261 261 265 270 276 283 286 287 288 289 291 292 293 293 293 294 295 293 291 289 288 290 295 299 302 305 308 310 313 316 314 314 317 317 317 314 311 313 312 307 308 310 306 304 302 300 299 297 296 295 293 291 288 283 280 280 281 280 278
244 243 242 240 239 238 236 235 233 231 230 230 232 232 232 234 235 238 241 244 247 249 251 254 255 256 258 259 265 271 276 282 284 285 288 290 291 292 292 293 293 294 293 292 291 291 293 297 299 302 306 307 309 309 311 313 310 309 314 314 314 315 310 307 309 308 308 308 306 303 300 301 300 297 296 295 294 293 289 286 283 280 278 275 271
244 243 242 240 239 237 235 234 233 231 229 229 231 231 232 234 235 237 240 243 245 246 249 252 252 253 257 260 266 272 276 280 281 284 288 289 290 289 290 292 292 292 292 293 295 298 301 304 304 306 308 307 308 308 309 310 307 307 310 306 306 313 312 306 306 307 306 306 306 306 304 302 301 300 300 300 300 299 292 284 278 272 269 268 270
243 242 241 240 239 236 234 232 231 230 229 229 231 232 233 235 235 237 239 240 243 244 246 248 248 251 255 260 266 270 273 276 279 283 287 287 288 290 291 293 293 295 297 299 302 304 304 303 303 304 305 302 303 305 305 305 304 305 309 307 302 306 309 305 303 303 303 305 305 306 306 305 303 301 301 299 296 293 286 281 279 276 273 274 276
242 240 239 237 237 235 233 232 230 229 228 229 230 231 233 234 235 236 237 238 239 241 242 243 245 249 254 258 263 266 269 274 279 284 288 289 292 294 295 297 298 299 301 301 301 301 299 298 298 299 298 296 299 301 301 303 305 305 307 308 304 303 303 303 302 301 303 305 303 301 301 303 301 297 293 289 288 287 283 283 285 283 281 280 279
240 238 237 236 235 234 233 232 231 229 229 228 229 230 232 233 234 235 235 236 236 237 238 240 243 248 254 259 262 266 270 277 281 284 288 290 292 292 291 292 292 292 292 292 293 293 292 293 293 293 293 293 296 299 298 301 305 304 301 300 299 299 299 298 298 299 300 301 299 296 296 297 297 293 291 289 288 289 288 288 289 287 285 282 279
239 237 235 235 234 233 232 232 231 230 229 228 228 230 232 233 233 233 232 232 233 234 234 238 243 248 254 258 263 270 274 278 280 282 285 286 285 284 284 286 286 283 278 277 280 283 284 286 286 286 286 287 290 292 294 296 299 298 297 295 293 292 293 292 290 291 294 296 294 293 294 295 294 290 290 290 288 288 290 292 292 287 284 283 281
237 235 235 234 233 232 232 231 231 230 229 227 228 229 231 231 231 230 230 230 231 233 235 240 244 248 255 262 269 277 279 279 281 284 285 285 283 283 284 286 287 289 286 277 272 273 275 278 280 281 282 284 287 289 292 294 295 294 293 293 291 289 288 287 286 287 290 292 290 289 291 292 292 289 288 289 289 287 289 292 291 283 280 283 284
236 234 234 233 232 232 232 231 231 229 227 226 227 228 229 230 229 227 227 228 229 232 237 242 246 252 262 272 279 282 282 283 286 287 285 284 283 283 285 288 292 296 294 285 279 279 280 281 283 287 290 291 291 292 292 292 291 290 290 291 291 290 290 288 287 287 289 288 285 283 285 289 291 288 287 288 289 288 288 289 286 282 280 283 283
236 235 234 233 232 232 231 230 230 228 225 224 225 227 227 228 227 225 224 226 229 233 238 245 254 263 272 280 283 284 286 287 288 286 284 284 285 287 291 294 294 291 288 290 295 298 297 294 292 292 294 292 290 290 291 291 292 291 291 292 291 291 291 290 288 288 288 287 284 278 278 285 290 287 285 288 288 287 288 287 284 281 280 281 281
234 233 233 233 232 231 230 229 228 225 223 223 224 225 226 226 226 224 223 226 231 236 242 252 261 269 275 279 282 284 286 287 285 283 283 285 287 289 289 285 284 286 290 296 299 295 290 288 287 285 286 286 286 286 287 289 290 290 290 289 288 287 288 287 287 286 286 286 284 278 275 281 286 286 285 287 287 286 287 286 284 284 281 279 279
231 231 231 231 231 231 230 229 227 223 221 222 223 224 224 224 226 227 226 228 233 238 245 253 260 266 272 276 279 281 282 284 283 281 283 284 283 280 279 281 287 293 295 294 292 287 283 283 285 286 288 289 288 287 286 286 286 286 286 284 282 283 284 284 283 282 281 281 281 279 275 276 281 283 284 285 284 283 284 285 286 287 281 277 278
232 232 232 231 230 230 230 229 226 222 221 221 223 223 222 223 226 227 228 230 234 238 244 251 258 263 268 271 274 277 280 281 281 282 283 281 276 277 284 292 295 291 289 290 292 293 294 294 294 295 295 294 291 288 288 288 288 287 283 280 281 282 280 280 280 280 281 280 278 276 274 275 278 281 282 283 283 281 282 284 287 286 282 279 281
233 233 232 231 230 229 228 227 224 220 220 221 222 223 222 223 225 226 227 230 232 237 244 250 255 260 263 267 271 275 278 279 279 281 280 275 275 282 289 290 286 284 289 296 299 301 302 299 297 297 296 296 294 294 295 297 298 296 289 283 284 283 280 280 280 280 279 280 280 278 274 275 279 280 280 280 283 283 283 283 283 282 279 277 275
Height
1531 1532 1533 1534 1535 1535 1536 1536 1536 1537 1537 1537 1537 1537 1537 1536 1536 1536 1535 1534 1534 1533 1532 1531 1531 1530 1530 1529 1529 1528 1527 1527 1526 1526 1525 1525 1525 1525 1525 1525 1525 1525 1525 1524 1524 1523 1523 1522 1522 1522 1521 1521 1521 1521 1521 1521 1521 1522 1522 1522 1522 1522 1521 1521 1521 1520 1519 1519 1518 1519 1519 1520 1521 1522 1524 1526 1527 1528 1529 1530 1531 1531 1532 1533 1534
1530 1530 1531 1532 1533 1534 1534 1535 1535 1535 1535 1535 1535 1535 1535 1535 1535 1534 1534 1533 1533 1532 1531 1530 1530 1529 1529 1528 1528 1527 1526 1526 1525 1524 1524 1523 1523 1523 1523 1522 1523 1523 1523 1523 1522 1522 1521 1521 1521 1520 1520 1520 1520 1520 1519 1519 1519 1519 1519 1519 1519 1519 1519 1519 1519 1519 1518 1516 1516 1515 1516 1517 1517 1519 1520 1522 1523 1524 1525 1526 1527 1528 1529 1530 1531
1528 1529 1529 1530 1531 1532 1532 1533 1533 1533 1534 1534 1534 1534 1534 1533 1533 1533 1532 1532 1531 1531 1530 1529 1529 1528 1527 1527 1526 1526 1525 1524 1524 1523 1522 1522 1521 1521 1521 1521 1521 1521 1520 1521 1520 1520 1519 1519 1519 1519 1519 1518 1518 1518 1518 1518 1517 1517 1517 1517 1517 1516 1516 1517 1517 1517 1516 1515 1513 1513 1513 1513 1514 1515 1516 1518 1519 1521 1522 1523 1524 1526 1526 1527 1528
1526 1527 1528 1529 1529 1530 1530 1531 1531 1532 1532 1532 1532 1532 1532 1532 1531 1531 1531 1530 1529 1529 1529 1528 1527 1527 1526 1526 1525 1524 1524 1523 1522 1522 1521 1520 1520 1519 1519 1519 1519 1519 1519 1519 1519 1518 1517 1517 1517 1517 1517 1516 1516 1516 1516 1516 1515 1515 1515 1515 1515 1515 1514 1514 1515 1515 1514 1513 1512 1511 1511 1511 1511 1511 1512 1513 1515 1516 1518 1519 1521 1522 1523 1524 1525
1524 1525 1526 1527 1528 1528 1529 1529 1530 1530 1530 1530 1530 1530 1530 1530 1529 1529 1529 1528 1528 1528 1527 1527 1526 1525 1525 1524 1523 1523 1522 1522 1521 1520 1520 1519 1518 1518 1518 1517 1517 1518 1518 1518 1517 1516 1516 1515 1515 1515 1515 1514 1514 1514 1513 1513 1513 1513 1513 1514 1514 1513 1512 1512 1512 1513 1512 1511 1510 1509 1508 1508 1508 1508 1508 1509 1510 1512 1513 1515 1517 1518 1519 1520 1522
1522 1523 1524 1525 1526 1526 1527 1527 1528 1528 1528 1529 1529 1529 1529 1528 1528 1528 1527 1527 1526 1526 1526 1525 1525 1524 1523 1522 1522 1521 1521 1520 1519 1519 1518 1518 1517 1516 1516 1516 1516 1516 1517 1517 1516 1515 1514 1514 1513 1513 1513 1513 1513 1512 1511 1511 1511 1511 1511 1511 1511 1510 1510 1510 1511 1511 1511 1510 1508 1507 1506 1506 1506 1506 1505 1506 1506 1507 1509 1511 1512 1514 1515 1516 1518
1520 1521 1522 1523 1524 1524 1525 1525 1526 1526 1527 1527 1527 1527 1527 1527 1527 1526 1526 1525 1525 1525 1524 1524 1523 1523 1522 1521 1520 1519 1519 1518 1517 1517 1517 1516 1515 1515 1514 1514 1514 1515 1515 1515 1514 1513 1513 1512 1512 1512 1512 1512 1511 1511 1510 1510 1509 1509 1509 1509 1509 1508 1508 1508 1509 1509 1508 1507 1506 1505 1504 1504 1504 1504 1504 1503 1504 1504 1505 1507 1508 1509 1511 1512 1514
1518 1519 1520 1521 1522 1522 1523 1523 1524 1524 1525 1525 1525 1525 1526 1526 1525 1525 1524 1524 1523 1523 1522 1522 1521 1521 1520 1519 1518 1517 1517 1516 1516 1515 1515 1514 1514 1513 1513 1512 1513 1513 1512 1512 1511 1511 1510 1510 1510 1510 1510 1510 1510 1509 1508 1508 1508 1508 1507 1507 1507 1507 1507 1507 1507 1507 1506 1505 1504 1503 1503 1502 1502 1502 1502 1502 1502 1502 1503 1503 1504 1505 1506 1508 1510
1516 1517 1518 1519 1520 1520 1521 1521 1522 1522 1523 1523 1524 1524 1524 1524 1523 1523 1522 1522 1521 1521 1520 1520 1519 1519 1518 1517 1516 1515 1514 1513 1513 1513 1513 1512 1512 1511 1511 1510 1510 1510 1509 1509 1508 1508 1508 1507 1508 1508 1508 1508 1507 1507 1506 1506 1506 1506 1506 1505 1505 1506 1506 1506 1506 1505 1504 1503 1502 1501 1501 1500 1500 1500 1500 1499 1499 1499 1500 1500 1501 1502 1502 1504 1505
1513 1514 1515 1516 1517 1518 1518 1519 1520 1521 1521 1522 1522 1522 1522 1522 1521 1521 1520 1520 1519 1519 1518 1518 1517 1517 1516 1515 1514 1513 1512 1511 1511 1511 1510 1510 1509 1509 1508 1508 1507 1507 1506 1506 1506 1505 1505 1505 1505 1506 1506 1505 1504 1504 1504 1504 1504 1504 1504 1503 1503 1504 1504 1504 1503 1503 1502 1501 1500 1499 1499 1498 1498 1498 1498 1497 1497 1496 1497 1497 1498 1499 1500 1501 1501
1510 1512 1513 1514 1515 1515 1516 1517 1518 1519 1519 1520 1520 1520 1520 1520 1520 1519 1519 1518 1517 1517 1516 1516 1515 1515 1514 1513 1512 1511 1510 1509 1508 1508 1507 1507 1507 1507 1506 1506 1505 1504 1504 1503 1503 1503 1503 1503 1503 1504 1503 1502 1501 1501 1501 1501 1501 1501 1501 1501 1501 1501 1501 1501 1500 1500 1499 1499 1498 1497 1496 1496 1496 1496 1495 1495 1495 1494 1494 1494 1494 1495 1496 1497 1498
1508 1509 1510 1512 1513 1513 1514 1515 1516 1517 1517 1518 1518 1518 1518 1518 1518 1518 1517 1516 1515 1515 1514 1513 1513 1513 1512 1512 1510 1509 1508 1507 1506 1505 1505 1504 1504 1504 1504 1504 1503 1502 1502 1502 1501 1501 1500 1501 1501 1502 1501 1500 1499 1498 1498 1498 1498 1499 1499 1499 1499 1498 1498 1498 1497 1497 1497 1496 1495 1494 1494 1494 1494 1494 1494 1493 1493 1493 1492 1491 1491 1492 1492 1493 1494
1504 1506 1508 1509 1510 1511 1512 1513 1514 1514 1515 1515 1515 1516 1516 1516 1516 1516 1515 1515 1514 1513 1512 1511 1511 1510 1509 1509 1508 1507 1506 1505 1504 1503 1502 1502 1502 1502 1502 1501 1501 1500 1500 1499 1499 1499 1499 1499 1499 1499 1498 1497 1497 1497 1497 1496 1496 1497 1497 1496 1496 1496 1495 1495 1494 1494 1493 1493 1492 1491 1491 1491 1491 1491 1492 1491 1491 1491 1490 1489 1489 1489 1489 1490 1490
1501 1503 1505 1506 1507 1508 1509 1510 1511 1512 1512 1513 1513 1514 1514 1514 1514 1514 1514 1513 1512 1511 1510 1509 1509 1507 1505 1504 1504 1504 1503 1502 1502 1501 1501 1500 1500 1500 1500 1499 1498 1498 1498 1498 1497 1497 1497 1497 1497 1496 1495 1494 1494 1494 1494 1494 1494 1494 1495 1494 1494 1493 1492 1492 1491 1490 1489 1489 1489 1488 1488 1487 1488 1488 1488 1488 1488 1488 1487 1487 1487 1487 1487 1487 1487
1499 1500 1502 1503 1504 1506 1507 1508 1509 1509 1510 1510 1511 1512 1512 1512 1512 1512 1512 1511 1511 1509 1509 1508 1507 1506 1504 1502 1500 1500 1501 1501 1500 1500 1500 1499 1498 1498 1497 1496 1496 1495 1495 1495 1494 1494 1494 1494 1494 1493 1493 1492 1492 1491 1491 1491 1491 1491 1491 1491 1491 1490 1490 1489 1488 1487 1486 1486 1485 1485 1484 1484 1483 1484 1484 1484 1485 1485 1484 1484 1484 1484 1484 1484 1484
1495 1497 1498 1500 1501 1503 1504 1505 1506 1507 1508 1508 1509 1510 1510 1510 1511 1511 1510 1510 1509 1508 1507 1507 1506 1505 1504 1502 1499 1498 1499 1499 1497 1496 1496 1496 1495 1495 1494 1492 1492 1492 1492 1491 1491 1491 1491 1491 1490 1490 1490 1490 1489 1489 1488 1488 1488 1488 1487 1487 1487 1486 1486 1485 1484 1484 1483 1483 1482 1482 1481 1480 1480 1480 1480 1480 1480 1481 1481 1481 1480 1480 1480 1481 1481
1492 1494 1495 1497 1498 1499 1501 1502 1503 1504 1505 1506 1506 1507 1507 1508 1508 1509 1509 1508 1508 1507 1506 1505 1505 1504 1503 1502 1500 1498 1496 1496 1492 1490 1491 1493 1492 1491 1490 1489 1488 1489 1488 1488 1487 1487 1487 1487 1488 1487 1487 1487 1486 1486 1486 1485 1485 1484 1484 1483 1483 1482 1482 1481 1480 1480 1480 1480 1479 1479 1478 1477 1476 1476 1476 1476 1476 1477 1477 1477 1477 1477 1476 1477 1477
1489 1490 1492 1493 1495 1496 1498 1499 1500 1501 1502 1503 1504 1504 1505 1506 1506 1506 1507 1507 1506 1506 1505 1503 1503 1503 1502 1501 1501 1499 1495 1493 1491 1487 1484 1486 1488 1488 1486 1485 1484 1485 1485 1485 1484 1484 1485 1485 1485 1485 1485 1484 1484 1483 1483 1483 1482 1481 1480 1480 1479 1479 1478 1477 1476 1475 1475 1476 1476 1476 1475 1474 1473 1473 1472 1473 1472 1472 1473 1473 1473 1473 1473 1472 1473
1485 1487 1489 1491 1492 1493 1495 1496 1497 1498 1499 1500 1501 1502 1502 1503 1504 1504 1505 1505 1505 1504 1503 1503 1501 1501 1501 1500 1499 1499 1496 1494 1493 1489 1481 1477 1479 1483 1484 1483 1482 1482 1482 1482 1481 1481 1482 1482 1482 1482 1482 1481 1481 1481 1480 1479 1479 1478 1477 1477 1476 1476 1475 1474 1473 1472 1471 1472 1472 1472 1472 1471 1470 1469 1469 1469 1469 1469 1469 1469 1470 1470 1469 1469 1468
1482 1484 1486 1488 1489 1491 1492 1493 1494 1495 1497 1498 1499 1499 1500 1500 1501 1502 1502 1503 1503 1502 1502 1501 1500 1499 1499 1499 1498 1498 1497 1496 1494 1493 1489 1480 1474 1475 1477 1478 1480 1482 1481 1480 1479 1478 1478 1478 1478 1478 1478 1478 1478 1477 1477 1476 1475 1475 1475 1474 1474 1473 1472 1471 1470 1469 1469 1469 1469 1469 1468 1467 1466 1465 1465 1465 1465 1465 1465 1466 1466 1465 1465 1465 1465
1480 1482 1484 1486 1487 1488 1489 1490 1491 1492 1494 1495 1496 1497 1497 1498 1499 1499 1500 1500 1500 1500 1500 1499 1498 1497 1497 1497 1497 1496 1496 1496 1495 1494 1494 1489 1482 1478 1475 1472 1473 1477 1479 1477 1476 1477 1476 1475 1475 1474 1474 1474 1474 1474 1473 1472 1472 1472 1472 1471 1471 1470 1469 1468 1467 1466 1466 1466 1466 1466 1464 1463 1462 1461 1461 1461 1460 1460 1461 1462 1462 1461 1461 1461 1461
1477 1479 1481 1483 1485 1487 1488 1489 1489 1490 1491 1492 1492 1493 1494 1495 1496 1497 1497 1497 1497 1498 1497 1496 1496 1495 1495 1494 1494 1495 1494 1494 1494 1493 1492 1490 1486 1483 1481 1477 1472 1473 1476 1474 1473 1474 1474 1473 1472 1471 1470 1470 1470 1470 1470 1469 1469 1469 1468 1468 1467 1466 1465 1464 1464 1463 1463 1463 1463 1462 1460 1459 1458 1457 1457 1456 1456 1456 1457 1457 1458 1457 1456 1456 1456
1473 1476 1478 1480 1483 1484 1486 1487 1488 1488 1489 1489 1490 1491 1491 1492 1493 1494 1494 1495 1495 1495 1494 1494 1493 1493 1492 1492 1492 1491 1491 1491 1491 1490 1489 1487 1484 1481 1481 1480 1476 1473 1474 1473 1471 1471 1472 1471 1469 1468 1468 1468 1467 1467 1467 1467 1466 1466 1466 1465 1464 1463 1462 1461 1460 1459 1459 1458 1458 1457 1456 1454 1453 1452 1452 1451 1451 1451 1452 1453 1453 1453 1453 1452 1452
1469 1471 1473 1476 1479 1481 1483 1485 1486 1487 1487 1488 1488 1489 1489 1490 1491 1492 1492 1492 1492 1492 1492 1491 1491 1491 1490 1490 1490 1489 1488 1488 1487 1486 1485 1484 1481 1478 1476 1476 1473 1470 1471 1471 1469 1470 1470 1469 1467 1465 1465 1465 1465 1464 1464 1464 1463 1463 1463 1462 1461 1460 1459 1458 1456 1455 1454 1454 1453 1451 1450 1449 1447 1447 1446 1445 1445 1446 1447 1448 1448 1448 1449 1449 1448
1465 1466 1468 1471 1474 1477 1479 1481 1483 1485 1485 1486 1486 1487 1487 1488 1489 1489 1490 1490 1490 1490 1490 1489 1489 1489 1488 1488 1488 1487 1486 1485 1484 1484 1483 1481 1479 1475 1473 1473 1469 1465 1466 1466 1465 1465 1467 1468 1466 1465 1464 1463 1462 1461 1461 1460 1460 1460 1460 1459 1459 1458 1456 1455 1454 1452 1451 1449 1447 1446 1444 1442 1441 1440 1440 1440 1439 1440 1441 1442 1442 1442 1442 1443 1444
1461 1463 1465 1468 1470 1472 1475 1478 1480 1482 1483 1484 1484 1485 1485 1486 1486 1487 1488 1488 1488 1488 1488 1487 1487 1486 1486 1486 1485 1485 1484 1483 1482 1481 1480 1479 1478 1474 1470 1468 1465 1462 1461 1461 1461 1461 1462 1463 1463 1463 1463 1462 1459 1458 1457 1457 1458 1458 1458 1456 1456 1456 1454 1453 1451 1448 1447 1445 1442 1440 1438 1436 1435 1434 1433 1433 1434 1434 1435 1436 1436 1436 1436 1436 1437
1458 1461 1463 1465 1466 1468 1471 1474 1476 1478 1479 1480 1481 1482 1482 1483 1484 1484 1485 1485 1486 1486 1485 1485 1485 1484 1484 1484 1484 1483 1482 1481 1480 1479 1478 1477 1476 1475 1471 1465 1460 1456 1456 1457 1458 1459 1458 1458 1457 1457 1459 1458 1456 1456 1455 1455 1456 1455 1455 1453 1452 1451 1450 1448 1446 1444 1442 1440 1437 1435 1433 1431 1429 1429 1428 1428 1428 1428 1429 1429 1430 1429 1429 1429 1429
1454 1457 1459 1461 1462 1464 1466 1469 1471 1473 1475 1476 1478 1478 1479 1480 1480 1481 1482 1482 1483 1483 1483 1482 1482 1482 1482 1482 1481 1481 1480 1478 1477 1476 1476 1475 1474 1473 1472 1469 1462 1454 1450 1449 1451 1454 1454 1453 1452 1451 1453 1454 1452 1453 1453 1452 1453 1452 1451 1450 1447 1446 1445 1443 1441 1439 1436 1434 1432 1429 1428 1426 1424 1423 1422 1422 1422 1422 1422 1422 1422 1422 1421 1421 1421
1449 1452 1454 1456 1458 1460 1461 1464 1466 1468 1470 1472 1474 1474 1475 1476 1476 1477 1478 1479 1480 1480 1480 1480 1480 1480 1479 1479 1479 1478 1477 1476 1475 1474 1474 1473 1473 1472 1470 1469 1467 1461 1453 1445 1442 1446 1450 1450 1449 1447 1449 1451 1449 1449 1450 1449 1449 1448 1446 1445 1443 1440 1439 1437 1434 1432 1430 1427 1425 1423 1421 1420 1418 1417 1416 1416 1416 1416 1416 1415 1415 1414 1413 1413 1414
1444 1447 1450 1452 1454 1456 1457 1459 1461 1463 1465 1467 1469 1470 1471 1472 1472 1473 1474 1475 1476 1476 1476 1476 1477 1477 1477 1476 1476 1476 1475 1474 1473 1472 1471 1471 1470 1470 1469 1468 1467 1464 1460 1451 1440 1439 1444 1446 1446 1446 1446 1447 1447 1446 1446 1446 1445 1444 1442 1440 1437 1434 1431 1429 1427 1425 1423 1420 1418 1416 1414 1413 1411 1411 1410 1410 1410 1410 1409 1409 1408 1407 1406 1405 1405
1440 1443 1446 1448 1450 1452 1454 1456 1457 1459 1461 1463 1465 1466 1467 1468 1468 1468 1469 1471 1472 1472 1473 1473 1473 1474 1474 1474 1473 1472 1472 1471 1471 1470 1469 1468 1467 1467 1467 1466 1465 1462 1461 1457 1445 1437 1441 1443 1441 1444 1444 1443 1444 1443 1441 1441 1440 1438 1437 1434 1431 1428 1425 1422 1420 1417 1415 1413 1411 1409 1407 1406 1405 1404 1404 1404 1403 1402 1402 1401 1400 1399 1399 1397 1396
1435 1438 1442 1445 1447 1449 1451 1453 1454 1455 1457 1458 1460 1462 1463 1463 1463 1464 1465 1466 1468 1469 1469 1470 1470 1470 1471 1470 1470 1469 1469 1468 1468 1467 1467 1466 1465 1465 1464 1463 1463 1462 1459 1458 1449 1438 1440 1443 1440 1439 1441 1440 1439 1439 1437 1436 1435 1433 1431 1428 1425 1423 1419 1415 1413 1411 1408 1406 1404 1403 1401 1400 1398 1398 1397 1397 1396 1395 1394 1393 1392 1391 1391 1390 1389
1430 1433 1437 1440 1443 1445 1448 1450 1452 1453 1454 1455 1456 1457 1458 1459 1459 1460 1460 1462 1464 1465 1465 1466 1466 1467 1467 1467 1467 1466 1466 1466 1465 1465 1464 1464 1463 1462 1463 1461 1460 1460 1458 1456 1451 1440 1436 1440 1440 1437 1437 1436 1434 1435 1433 1430 1429 1428 1425 1423 1420 1417 1413 1408 1405 1403 1402 1400 1398 1396 1395 1393 1393 1392 1391 1390 1389 1388 1387 1386 1385 1385 1384 1383 1383
1425 1428 1431 1435 1438 1441 1443 1446 1448 1450 1451 1452 1453 1454 1455 1455 1455 1456 1456 1458 1460 1461 1462 1462 1463 1463 1463 1464 1464 1463 1463 1463 1462 1462 1461 1461 1461 1460 1460 1459 1457 1458 1456 1453 1450 1443 1434 1434 1437 1435 1433 1434 1431 1430 1430 1426 1423 1421 1418 1416 1414 1410 1407 1403 1399 1396 1395 1394 1392 1391 1390 1389 1387 1386 1385 1384 1383 1381 1380 1379 1379 1379 1379 1378 1377
1421 1423 1426 1430 1433 1436 1439 1442 1444 1446 1448 1449 1450 1451 1451 1452 1452 1453 1453 1454 1456 1457 1458 1459 1459 1460 1460 1460 1460 1460 1460 1459 1458 1458 1457 1457 1457 1457 1456 1456 1455 1454 1454 1451 1448 1444 1436 1430 1432 1432 1429 1429 1428 1427 1425 1422 1419 1415 1411 1409 1407 1404 1400 1398 1395 1392 1391 1389 1388 1386 1385 1384 1382 1381 1380 1378 1377 1376 1375 1374 1374 1373 1373 1372 1372
1416 1419 1422 1425 1428 1430 1434 1437 1439 1442 1444 1445 1447 1447 1448 1449 1449 1449 1450 1451 1452 1453 1455 1455 1456 1456 1456 1456 1456 1456 1456 1456 1455 1455 1455 1454 1454 1454 1453 1453 1452 1450 1450 1448 1445 1443 1437 1429 1428 1430 1427 1424 1423 1423 1421 1418 1414 1411 1407 1404 1401 1398 1395 1393 1390 1387 1386 1385 1383 1381 1380 1378 1377 1376 1375 1373 1372 1371 1370 1369 1369 1368 1368 1367 1366
1411 1414 1417 1419 1422 1425 1428 1431 1434 1437 1439 1441 1443 1444 1445 1445 1445 1446 1447 1448 1449 1450 1451 1452 1452 1452 1452 1452 1453 1452 1452 1452 1452 1451 1451 1451 1450 1450 1450 1449 1449 1447 1446 1445 1443 1441 1438 1430 1426 1426 1425 1422 1419 1418 1419 1415 1410 1407 1403 1400 1398 1393 1388 1387 1386 1384 1382 1380 1378 1376 1375 1374 1373 1371 1369 1368 1366 1365 1364 1364 1363 1362 1362 1361 1361
1405 1408 1411 1414 1417 1420 1423 1426 1429 1432 1435 1437 1438 1439 1440 1441 1441 1442 1443 1445 1446 1447 1447 1448 1448 1449 1449 1449 1448 1449 1448 1448 1449 1449 1448 1448 1447 1447 1446 1445 1444 1443 1442 1441 1440 1438 1435 1431 1425 1421 1420 1419 1416 1414 1416 1415 1410 1405 1398 1392 1391 1393 1388 1381 1379 1380 1380 1377 1374 1372 1370 1368 1367 1366 1363 1361 1360 1359 1358 1358 1357 1356 1356 1356 1355
1399 1402 1405 1408 1412 1415 1418 1421 1425 1427 1430 1431 1433 1435 1436 1437 1438 1438 1440 1442 1443 1443 1444 1444 1445 1445 1445 1446 1445 1445 1445 1445 1445 1445 1444 1444 1444 1443 1443 1442 1440 1439 1438 1437 1436 1434 1431 1427 1423 1419 1416 1416 1414 1411 1411 1412 1410 1407 1403 1390 1380 1383 1386 1380 1375 1375 1375 1373 1370 1369 1367 1364 1362 1360 1358 1356 1354 1354 1352 1352 1351 1351 1350 1350 1348
1393 1396 1399 1403 1407 1410 1413 1417 1420 1422 1424 1426 1428 1430 1432 1433 1434 1435 1436 1438 1439 1440 1441 1441 1442 1442 1441 1442 1442 1441 1442 1441 1441 1441 1441 1441 1440 1440 1439 1438 1437 1436 1434 1433 1431 1429 1427 1423 1420 1417 1414 1412 1411 1409 1407 1409 1406 1403 1405 1400 1383 1376 1378 1376 1372 1373 1373 1369 1365 1362 1362 1361 1358 1355 1353 1350 1348 1348 1347 1346 1346 1345 1344 1343 1341
1387 1391 1394 1398 1401 1405 1408 1411 1414 1416 1418 1421 1423 1426 1427 1428 1430 1431 1433 1434 1435 1436 1437 1438 1438 1438 1438 1438 1438 1438 1438 1438 1438 1437 1437 1437 1436 1436 1436 1435 1433 1432 1430 1428 1426 1424 1423 1420 1417 1416 1413 1409 1408 1407 1404 1404 1404 1398 1397 1398 1388 1379 1376 1370 1365 1369 1372 1367 1361 1357 1356 1356 1355 1351 1349 1346 1343 1343 1343 1341 1340 1339 1337 1336 1335
1382 1385 1389 1392 1395 1399 1403 1405 1408 1410 1413 1416 1419 1421 1422 1424 1425 1427 1428 1430 1431 1432 1433 1434 1434 1434 1435 1435 1435 1435 1434 1434 1434 1433 1434 1433 1432 1432 1431 1430 1429 1427 1426 1425 1423 1422 1420 1418 1415 1414 1412 1406 1405 1406 1401 1398 1399 1396 1392 1391 1385 1379 1377 1368 1358 1359 1366 1366 1359 1354 1351 1352 1351 1347 1342 1340 1338 1337 1337 1335 1333 1332 1330 1329 1328
1377 1380 1383 1386 1390 1394 1397 1400 1403 1406 1409 1412 1414 1416 1418 1419 1421 1423 1424 1425 1427 1428 1429 1430 1430 1430 1431 1431 1430 1430 1430 1429 1429 1429 1430 1430 1429 1429 1428 1427 1426 1425 1424 1423 1421 1420 1418 1416 1413 1412 1410 1404 1401 1403 1400 1395 1394 1391 1389 1388 1383 1378 1375 1370 1358 1351 1356 1363 1359 1350 1345 1345 1347 1343 1335 1332 1331 1330 1329 1327 1326 1325 1323 1322 1321
1371 1375 1378 1381 1384 1388 1391 1395 1398 1401 1405 1408 1410 1411 1413 1415 1416 1418 1420 1421 1422 1424 1425 1426 1426 1426 1427 1427 1426 1426 1425 1426 1425 1426 1426 1426 1426 1426 1425 1424 1423 1423 1423 1422 1421 1420 1418 1415 1412 1410 1409 1405 1401 1399 1399 1396 1393 1389 1385 1383 1381 1378 1373 1369 1361 1349 1349 1357 1357 1347 1338 1336 1340 1339 1329 1324 1325 1324 1322 1320 1319 1318 1317 1315 1315
1367 1370 1373 1376 1379 1383 1386 1390 1393 1397 1401 1404 1405 1407 1409 1411 1412 1414 1416 1418 1419 1421 1422 1423 1423 1423 1423 1423 1423 1422 1422 1422 1422 1422 1422 1421 1421 1421 1420 1420 1419 1418 1419 1419 1419 1419 1417 1415 1410 1407 1407 1405 1400 1396 1396 1397 1393 1387 1382 1378 1376 1375 1371 1364 1358 1348 1346 1352 1354 1346 1333 1327 1332 1333 1322 1317 1320 1319 1316 1314 1313 1312 1311 1309 1308
1363 1366 1368 1371 1374 1378 1381 1385 1389 1393 1397 1400 1401 1404 1405 1407 1409 1411 1412 1414 1416 1418 1419 1420 1420 1421 1420 1420 1419 1419 1420 1420 1420 1419 1418 1418 1417 1416 1416 1415 1414 1414 1414 1414 1415 1415 1414 1412 1407 1402 1402 1402 1398 1393 1392 1394 1392 1387 1381 1374 1370 1368 1364 1357 1352 1345 1341 1345 1349 1345 1330 1319 1323 1325 1316 1312 1315 1313 1310 1309 1307 1306 1306 1303 1302
1358 1361 1364 1366 1369 1373 1376 1380 1384 1388 1393 1396 1398 1400 1402 1403 1405 1406 1408 1410 1412 1414 1416 1417 1417 1417 1417 1416 1416 1417 1417 1417 1417 1417 1416 1415 1413 1412 1411 1411 1410 1410 1409 1408 1409 1408 1407 1406 1403 1399 1397 1397 1395 1392 1389 1388 1387 1383 1379 1373 1366 1363 1358 1350 1345 1339 1334 1337 1343 1342 1329 1315 1315 1317 1311 1309 1311 1306 1302 1303 1301 1301 1300 1298 1297
1355 1357 1360 1362 1365 1368 1372 1375 1379 1384 1388 1391 1393 1396 1398 1399 1399 1401 1404 1406 1408 1410 1412 1412 1413 1413 1413 1413 1413 1413 1414 1414 1414 1414 1413 1411 1410 1409 1408 1408 1407 1406 1405 1404 1404 1404 1403 1402 1400 1397 1394 1392 1391 1389 1387 1385 1382 1379 1376 1369 1363 1360 1355 1347 1340 1334 1329 1331 1336 1337 1327 1312 1310 1311 1307 1305 1306 1300 1295 1295 1295 1295 1295 1293 1291
1350 1353 1355 1358 1361 1364 1368 1371 1375 1380 1385 1387 1389 1392 1394 1394 1394 1396 1400 1402 1403 1405 1407 1408 1408 1409 1409 1409 1409 1409 1410 1410 1410 1409 1409 1408 1407 1407 1406 1405 1404 1403 1401 1401 1400 1400 1399 1397 1395 1392 1389 1387 1386 1384 1383 1381 1378 1376 1372 1362 1356 1356 1352 1344 1337 1330 1324 1324 1329 1333 1326 1311 1306 1308 1304 1301 1300 1294 1289 1288 1288 1288 1287 1286 1286
1346 1349 1351 1354 1357 1360 1364 1368 1372 1377 1381 1383 1386 1388 1390 1390 1390 1392 1395 1397 1398 1400 1401 1403 1404 1404 1405 1405 1405 1405 1405 1405 1405 1405 1404 1404 1403 1403 1402 1401 1401 1399 1397 1396 1395 1393 1392 1390 1388 1386 1384 1382 1380 1377 1375 1373 1371 1369 1365 1356 1351 1350 1346 1339 1333 1327 1320 1315 1319 1328 1323 1309 1304 1305 1301 1296 1291 1286 1284 1283 1281 1281 1280 1280 1279
1344 1346 1348 1351 1353 1356 1359 1364 1368 1373 1376 1379 1381 1384 1385 1386 1386 1389 1391 1391 1393 1394 1396 1397 1399 1399 1400 1401 1401 1401 1401 1401 1401 1400 1400 1400 1399 1399 1399 1398 1397 1395 1394 1392 1389 1387 1386 1384 1382 1380 1378 1376 1373 1369 1366 1363 1361 1360 1357 1351 1348 1345 1341 1334 1330 1327 1317 1305 1310 1321 1317 1307 1303 1300 1298 1297 1286 1276 1278 1279 1276 1275 1275 1274 1273